Total_Precipitation_Accumulation
0.68 0.89 0.95 0.87 0.88 0.97 0.89 0.85 0.97 0.95 0.78 0.96 0.95 0.78 0.67 0.61 0.57 0.60 0.66 0.68 0.64 0.54 0.43 0.40 0.40 0.49 0.58 0.60 0.62 0.71 0.73 0.80 0.78 0.67 0.64 0.79 0.95 1.11 1.27 1.43 1.44 1.67 1.77 1.65
0.79 0.68 0.52 0.63 0.68 0.79 0.84 0.93 0.98 0.88 0.76 0.86 0.96 0.81 0.68 0.59 0.51 0.52 0.58 0.63 0.63 0.55 0.47 0.43 0.41 0.46 0.51 0.56 0.55 0.60 0.66 0.78 0.87 0.85 0.82 0.92 1.13 1.26 1.38 1.56 1.59 1.65 1.66 1.63
0.60 0.49 0.43 0.54 0.63 0.78 0.78 0.87 0.88 0.90 0.94 0.88 0.95 1.06 0.83 0.65 0.57 0.53 0.53 0.57 0.57 0.49 0.44 0.43 0.40 0.37 0.40 0.46 0.47 0.53 0.66 0.83 1.02 1.19 1.41 1.63 1.92 2.08 1.93 1.80 1.88 1.96 2.01 1.92
0.69 0.46 0.44 0.53 0.60 0.69 0.88 0.63 0.66 0.79 1.08 1.14 0.94 1.25 0.90 0.65 0.62 0.60 0.56 0.51 0.47 0.42 0.40 0.37 0.36 0.36 0.38 0.47 0.58 0.71 0.89 1.05 1.25 1.47 1.73 2.02 2.26 2.44 2.37 2.39 2.45 2.39 2.31 2.20
0.78 0.49 0.45 0.52 0.48 0.54 0.69 0.60 0.65 0.80 1.06 1.05 0.91 0.98 0.85 0.66 0.70 0.70 0.65 0.56 0.53 0.51 0.49 0.51 0.50 0.49 0.54 0.66 0.82 0.97 1.29 1.48 1.60 1.67 1.79 2.07 2.17 2.22 2.28 2.38 2.42 2.43 2.35 2.25
0.66 0.47 0.43 0.43 0.41 0.45 0.58 0.71 0.83 0.96 1.12 1.13 0.78 0.80 0.88 0.66 0.70 0.77 0.71 0.61 0.56 0.55 0.52 0.57 0.65 0.66 0.74 1.00 1.28 1.43 1.60 1.85 1.81 1.74 1.75 1.86 2.01 2.10 2.17 2.27 2.31 2.24 2.12 2.09
0.63 0.53 0.40 0.40 0.51 0.51 0.60 0.96 1.28 1.33 1.25 0.92 0.50 0.62 0.72 0.53 0.48 0.55 0.59 0.58 0.53 0.48 0.50 0.57 0.66 0.80 1.04 1.30 1.53 1.67 1.73 1.78 1.73 1.63 1.71 1.72 1.88 2.07 2.10 2.08 2.03 2.00 1.92 1.87
0.55 0.60 0.40 0.34 0.41 0.48 0.53 0.71 1.11 1.27 1.09 0.76 0.52 0.69 0.68 0.48 0.37 0.33 0.34 0.39 0.48 0.53 0.61 0.66 0.73 0.93 1.27 1.57 1.81 2.11 2.11 1.92 1.76 1.67 1.74 1.86 1.96 2.02 1.99 1.85 1.80 1.79 1.72 1.66
0.46 0.45 0.35 0.33 0.35 0.39 0.50 0.53 0.58 0.84 0.73 0.70 0.58 0.61 0.54 0.36 0.29 0.28 0.30 0.36 0.48 0.59 0.71 0.83 1.01 1.12 1.41 1.67 1.99 2.31 2.43 2.24 2.07 1.99 1.95 2.01 1.97 1.84 1.73 1.62 1.58 1.58 1.56 1.45
0.40 0.46 0.40 0.38 0.45 0.41 0.41 0.48 0.60 0.86 0.95 0.92 0.67 0.64 0.58 0.41 0.30 0.29 0.39 0.45 0.53 0.65 0.72 0.92 1.25 1.56 1.88 1.86 1.99 2.18 2.17 2.15 2.16 2.19 2.18 2.10 1.95 1.79 1.73 1.65 1.63 1.57 1.54 1.41
0.36 0.47 0.47 0.45 0.42 0.38 0.41 0.49 0.59 0.75 0.77 0.97 1.01 0.85 0.58 0.50 0.47 0.49 0.54 0.57 0.62 0.70 0.79 1.02 1.26 1.50 1.78 1.91 1.91 1.90 1.90 2.00 2.03 1.94 1.90 1.83 1.62 1.48 1.45 1.45 1.43 1.39 1.36 1.24
0.34 0.47 0.50 0.41 0.33 0.35 0.44 0.48 0.59 0.94 0.92 0.82 1.07 1.08 0.66 0.66 0.67 0.73 0.79 0.83 0.84 0.86 0.94 1.11 1.24 1.44 1.54 1.58 1.69 1.78 1.68 1.66 1.66 1.58 1.50 1.40 1.35 1.27 1.27 1.28 1.22 1.15 1.19 1.13
0.41 0.58 0.67 0.63 0.56 0.48 0.61 0.64 0.57 0.61 0.81 0.96 1.18 1.15 0.84 0.84 0.87 0.97 1.08 1.12 1.05 0.97 0.98 1.10 1.19 1.27 1.34 1.38 1.47 1.64 1.58 1.57 1.58 1.45 1.38 1.29 1.24 1.25 1.23 1.17 1.14 1.01 0.98 1.05
0.44 0.54 0.54 0.57 0.51 0.50 0.68 0.73 0.64 0.72 0.92 0.92 0.92 0.98 0.99 1.08 1.08 1.11 1.13 1.12 1.03 0.94 0.88 0.88 0.90 0.97 1.04 1.08 1.16 1.33 1.37 1.52 1.67 1.60 1.47 1.38 1.29 1.24 1.25 1.13 1.03 0.96 0.99 1.07
0.42 0.47 0.36 0.29 0.28 0.31 0.47 0.56 0.55 0.65 0.71 0.75 0.74 0.82 0.99 1.08 1.09 1.06 0.98 0.87 0.82 0.77 0.69 0.65 0.69 0.78 0.85 0.94 0.97 1.05 1.20 1.42 1.49 1.32 1.11 1.05 1.09 1.10 1.08 1.07 1.01 0.92 0.88 0.86
0.41 0.45 0.37 0.31 0.25 0.27 0.29 0.28 0.33 0.38 0.42 0.51 0.64 0.83 0.87 0.89 0.88 0.80 0.68 0.59 0.58 0.56 0.55 0.54 0.60 0.67 0.67 0.71 0.78 0.93 1.00 1.07 1.06 1.00 0.92 0.91 0.90 0.89 0.91 0.97 0.96 0.88 0.81 0.74
0.41 0.48 0.54 0.46 0.29 0.35 0.34 0.23 0.27 0.37 0.39 0.51 0.76 0.89 0.77 0.71 0.68 0.65 0.53 0.43 0.44 0.44 0.48 0.51 0.50 0.53 0.53 0.56 0.60 0.63 0.72 0.83 0.79 0.73 0.71 0.72 0.79 0.79 0.81 0.91 0.95 0.92 0.88 0.81
0.37 0.49 0.64 0.60 0.55 0.56 0.33 0.18 0.20 0.31 0.39 0.48 0.63 0.66 0.58 0.57 0.52 0.47 0.41 0.37 0.38 0.41 0.43 0.41 0.39 0.41 0.43 0.48 0.52 0.55 0.59 0.66 0.72 0.67 0.64 0.61 0.66 0.73 0.79 0.88 0.90 0.90 0.88 0.84
0.27 0.49 0.72 0.71 0.76 0.50 0.25 0.19 0.23 0.28 0.36 0.36 0.40 0.42 0.40 0.42 0.46 0.48 0.40 0.36 0.35 0.34 0.35 0.35 0.36 0.41 0.45 0.50 0.54 0.51 0.52 0.54 0.60 0.63 0.64 0.63 0.62 0.67 0.72 0.80 0.83 0.84 0.84 0.79
0.29 0.40 0.66 0.76 0.83 0.66 0.37 0.23 0.21 0.25 0.42 0.31 0.30 0.29 0.30 0.33 0.52 0.58 0.43 0.35 0.32 0.31 0.30 0.33 0.36 0.42 0.46 0.50 0.54 0.55 0.53 0.52 0.52 0.58 0.63 0.69 0.70 0.70 0.68 0.77 0.89 0.90 0.89 0.88
0.36 0.45 0.54 0.67 0.79 0.53 0.28 0.22 0.27 0.48 0.53 0.28 0.25 0.26 0.29 0.37 0.46 0.48 0.42 0.36 0.32 0.35 0.35 0.34 0.38 0.41 0.44 0.49 0.55 0.61 0.62 0.59 0.58 0.60 0.65 0.67 0.67 0.70 0.76 0.82 0.86 0.93 0.91 0.88
0.45 0.55 0.58 0.65 0.78 0.59 0.27 0.26 0.41 0.46 0.27 0.21 0.21 0.24 0.29 0.33 0.33 0.33 0.34 0.32 0.30 0.31 0.33 0.35 0.40 0.41 0.45 0.48 0.50 0.55 0.60 0.62 0.59 0.55 0.58 0.61 0.64 0.68 0.77 0.84 0.82 0.85 0.91 0.91
0.41 0.47 0.56 0.59 0.56 0.40 0.29 0.30 0.31 0.28 0.24 0.20 0.19 0.21 0.25 0.27 0.28 0.28 0.28 0.29 0.29 0.29 0.31 0.34 0.38 0.42 0.48 0.51 0.52 0.57 0.67 0.69 0.60 0.56 0.58 0.63 0.71 0.76 0.75 0.84 0.87 0.86 0.89 0.93
0.37 0.33 0.42 0.44 0.33 0.23 0.23 0.24 0.24 0.22 0.22 0.21 0.20 0.22 0.26 0.28 0.29 0.31 0.28 0.29 0.31 0.31 0.31 0.33 0.39 0.46 0.53 0.56 0.59 0.64 0.70 0.73 0.69 0.67 0.68 0.70 0.74 0.84 0.86 0.86 0.91 0.93 0.95 1.02
0.38 0.36 0.40 0.41 0.32 0.23 0.19 0.19 0.18 0.19 0.21 0.21 0.23 0.24 0.28 0.30 0.30 0.34 0.33 0.35 0.36 0.35 0.33 0.35 0.40 0.45 0.54 0.58 0.61 0.65 0.68 0.72 0.72 0.68 0.71 0.76 0.77 0.84 0.94 0.95 0.96 0.99 1.03 1.17
0.37 0.42 0.51 0.48 0.38 0.36 0.28 0.22 0.18 0.20 0.24 0.22 0.23 0.23 0.23 0.25 0.28 0.30 0.34 0.40 0.43 0.44 0.42 0.41 0.45 0.50 0.55 0.58 0.60 0.62 0.66 0.70 0.72 0.72 0.73 0.75 0.79 0.83 0.88 0.96 1.01 1.07 1.07 1.16